Time,TemperatureF,DewpointF,PressureIn,WindDirection,WindDirectionDegrees,WindSpeedMPH,WindSpeedGustMPH,Humidity,HourlyPrecipIn,Conditions,Clouds,dailyrainin,SoftwareType,DateUTC
2013-03-10 00:03:00,37.9,32.3,30.49,SSE,167,5.0,6.0,80,0.00,,,0.00,Wunderground v.1.15,2013-03-10 08:03:00,
2013-03-10 00:09:00,37.8,32.2,30.49,SSE,165,5.0,6.0,80,0.00,,,0.00,Wunderground v.1.15,2013-03-10 08:09:00,
2013-03-10 00:15:00,37.6,32.0,30.49,SSE,165,4.0,6.0,80,0.00,,,0.00,Wunderground v.1.15,2013-03-10 08:15:00,
2013-03-10 00:21:00,37.4,31.8,30.49,SSE,165,6.0,6.0,80,0.00,,,0.00,Wunderground v.1.15,2013-03-10 08:21:00,
2013-03-10 00:26:00,37.3,32.0,30.49,SSE,167,5.0,6.0,81,0.00,,,0.00,Wunderground v.1.15,2013-03-10 08:26:00,
2013-03-10 00:32:00,37.1,31.8,30.50,SSE,161,5.0,6.0,81,0.00,,,0.00,Wunderground v.1.15,2013-03-10 08:32:00,
2013-03-10 00:38:00,36.9,31.6,30.50,SSE,160,5.0,6.0,81,0.00,,,0.00,Wunderground v.1.15,2013-03-10 08:38:00,
2013-03-10 00:43:00,36.8,31.5,30.50,SSE,159,2.0,5.0,81,0.00,,,0.00,Wunderground v.1.15,2013-03-10 08:43:00,
2013-03-10 00:49:00,36.7,31.7,30.50,SSE,161,4.0,6.0,82,0.00,,,0.00,Wunderground v.1.15,2013-03-10 08:49:00,
2013-03-10 00:55:00,36.5,31.5,30.50,SSE,159,4.0,4.0,82,0.00,,,0.00,Wunderground v.1.15,2013-03-10 08:55:00,
2013-03-10 01:01:00,36.2,31.2,30.51,SSE,163,5.0,6.0,82,0.00,,,0.00,Wunderground v.1.15,2013-03-10 09:01:00,
2013-03-10 01:06:00,35.9,31.2,30.51,SSE,163,7.0,7.0,83,0.00,,,0.00,Wunderground v.1.15,2013-03-10 09:06:00,
2013-03-10 01:12:00,35.8,31.1,30.51,SSE,162,5.0,5.0,83,0.00,,,0.00,Wunderground v.1.15,2013-03-10 09:12:00,
2013-03-10 01:17:00,35.7,31.0,30.51,SSE,163,4.0,6.0,83,0.00,,,0.00,Wunderground v.1.15,2013-03-10 09:17:00,
2013-03-10 01:23:00,35.7,31.3,30.51,South,169,5.0,6.0,84,0.00,,,0.00,Wunderground v.1.15,2013-03-10 09:23:00,
2013-03-10 01:29:00,35.7,31.3,30.51,SSE,161,5.0,6.0,84,0.00,,,0.00,Wunderground v.1.15,2013-03-10 09:29:00,
2013-03-10 01:34:00,35.7,31.3,30.51,SSE,161,4.0,5.0,84,0.00,,,0.00,Wunderground v.1.15,2013-03-10 09:34:00,
2013-03-10 01:40:00,35.4,31.0,30.51,SSE,161,5.0,5.0,84,0.00,,,0.00,Wunderground v.1.15,2013-03-10 09:40:00,
2013-03-10 01:46:00,35.1,30.8,30.50,SSE,153,5.0,6.0,84,0.00,,,0.00,Wunderground v.1.15,2013-03-10 09:46:00,
2013-03-10 01:52:00,34.9,30.8,30.50,SSE,153,3.0,5.0,85,0.00,,,0.00,Wunderground v.1.15,2013-03-10 09:52:00,
2013-03-10 01:58:00,34.8,30.8,30.50,SSE,156,3.0,6.0,85,0.00,,,0.00,Wunderground v.1.15,2013-03-10 09:58:00,
2013-03-10 03:04:00,34.8,30.8,30.50,SSE,149,4.0,5.0,85,0.00,,,0.00,Wunderground v.1.15,2013-03-10 10:04:00,
2013-03-10 03:09:00,34.9,30.8,30.50,SSE,149,5.0,6.0,85,0.00,,,0.00,Wunderground v.1.15,2013-03-10 10:09:00,
2013-03-10 03:14:00,34.8,30.8,30.50,SSE,151,5.0,5.0,85,0.00,,,0.00,Wunderground v.1.15,2013-03-10 10:14:00,
2013-03-10 03:19:00,34.8,30.8,30.50,SSE,157,4.0,6.0,85,0.00,,,0.00,Wunderground v.1.15,2013-03-10 10:19:00,
2013-03-10 03:24:00,34.6,30.6,30.49,SSE,157,4.0,6.0,85,0.00,,,0.00,Wunderground v.1.15,2013-03-10 10:24:00,
2013-03-10 03:29:00,34.4,30.6,30.49,SSE,157,4.0,6.0,86,0.00,,,0.00,Wunderground v.1.15,2013-03-10 10:29:00,
2013-03-10 03:34:00,34.3,30.5,30.49,SSE,157,4.0,5.0,86,0.00,,,0.00,Wunderground v.1.15,2013-03-10 10:34:00,
2013-03-10 03:39:00,34.4,30.6,30.49,SSE,157,3.0,5.0,86,0.00,,,0.00,Wunderground v.1.15,2013-03-10 10:39:00,
2013-03-10 03:44:00,34.4,30.6,30.49,SSE,157,3.0,5.0,86,0.00,,,0.00,Wunderground v.1.15,2013-03-10 10:44:00,
2013-03-10 03:50:00,34.4,30.6,30.49,SSE,157,4.0,4.0,86,0.00,,,0.00,Wunderground v.1.15,2013-03-10 10:50:00,
2013-03-10 03:55:00,34.4,30.6,30.50,SSE,157,2.0,5.0,86,0.00,,,0.00,Wunderground v.1.15,2013-03-10 10:55:00,
2013-03-10 04:00:00,34.4,30.6,30.50,SSE,157,0.0,2.0,86,0.00,,,0.00,Wunderground v.1.15,2013-03-10 11:00:00,
2013-03-10 04:05:00,34.3,30.5,30.49,SSE,157,0.0,2.0,86,0.00,,,0.00,Wunderground v.1.15,2013-03-10 11:05:00,
2013-03-10 04:10:00,34.1,30.4,30.49,SSE,157,0.0,0.0,86,0.00,,,0.00,Wunderground v.1.15,2013-03-10 11:10:00,
2013-03-10 04:15:00,34.0,30.5,30.49,SSE,157,0.0,0.0,87,0.00,,,0.00,Wunderground v.1.15,2013-03-10 11:15:00,
2013-03-10 04:20:00,34.0,30.5,30.49,SSE,157,0.0,0.0,87,0.00,,,0.00,Wunderground v.1.15,2013-03-10 11:20:00,
2013-03-10 04:25:00,34.2,30.7,30.49,SSE,157,0.0,1.0,87,0.00,,,0.00,Wunderground v.1.15,2013-03-10 11:25:00,
2013-03-10 04:30:00,34.3,30.5,30.49,SSE,157,2.0,3.0,86,0.00,,,0.00,Wunderground v.1.15,2013-03-10 11:30:00,
2013-03-10 04:35:00,34.3,30.5,30.49,SSE,157,2.0,3.0,86,0.00,,,0.00,Wunderground v.1.15,2013-03-10 11:35:00,
2013-03-10 04:40:00,34.4,30.6,30.49,SSE,157,4.0,4.0,86,0.00,,,0.00,Wunderground v.1.15,2013-03-10 11:40:00,
2013-03-10 04:45:00,34.4,30.6,30.49,SSE,157,3.0,4.0,86,0.00,,,0.00,Wunderground v.1.15,2013-03-10 11:45:00,
2013-03-10 04:50:00,34.4,30.4,30.49,SSE,157,1.0,3.0,85,0.00,,,0.00,Wunderground v.1.15,2013-03-10 11:50:00,
2013-03-10 04:56:00,34.4,30.4,30.49,SSE,157,2.0,3.0,85,0.00,,,0.00,Wunderground v.1.15,2013-03-10 11:56:00,
2013-03-10 05:01:00,34.3,30.3,30.49,SSE,157,2.0,2.0,85,0.00,,,0.00,Wunderground v.1.15,2013-03-10 12:01:00,
2013-03-10 05:06:00,33.9,30.4,30.49,SSE,157,2.0,3.0,87,0.00,,,0.00,Wunderground v.1.15,2013-03-10 12:06:00,
2013-03-10 05:11:00,33.7,30.2,30.49,SSE,157,0.0,2.0,87,0.00,,,0.00,Wunderground v.1.15,2013-03-10 12:11:00,
2013-03-10 05:16:00,33.5,30.3,30.50,SSE,157,0.0,2.0,88,0.00,,,0.00,Wunderground v.1.15,2013-03-10 12:16:00,
2013-03-10 05:21:00,33.5,30.3,30.49,SSE,157,0.0,0.0,88,0.00,,,0.00,Wunderground v.1.15,2013-03-10 12:21:00,
2013-03-10 05:26:00,33.5,30.6,30.49,SSE,157,0.0,0.0,89,0.00,,,0.00,Wunderground v.1.15,2013-03-10 12:26:00,
2013-03-10 05:31:00,33.6,30.4,30.49,SSE,157,0.0,0.0,88,0.00,,,0.00,Wunderground v.1.15,2013-03-10 12:31:00,
2013-03-10 05:36:00,33.6,30.4,30.49,SSE,157,2.0,2.0,88,0.00,,,0.00,Wunderground v.1.15,2013-03-10 12:36:00,
2013-03-10 05:41:00,33.7,30.8,30.49,SSE,157,0.0,2.0,89,0.00,,,0.00,Wunderground v.1.15,2013-03-10 12:41:00,
2013-03-10 05:46:00,33.8,30.6,30.49,SSE,157,0.0,2.0,88,0.00,,,0.00,Wunderground v.1.15,2013-03-10 12:46:00,
2013-03-10 05:51:00,33.8,30.6,30.49,SSE,157,0.0,0.0,88,0.00,,,0.00,Wunderground v.1.15,2013-03-10 12:51:00,
2013-03-10 05:56:00,33.7,30.5,30.49,SSE,157,0.0,0.0,88,0.00,,,0.00,Wunderground v.1.15,2013-03-10 12:56:00,
2013-03-10 06:01:00,33.6,30.4,30.49,SSE,157,0.0,0.0,88,0.00,,,0.00,Wunderground v.1.15,2013-03-10 13:01:00,
2013-03-10 06:06:00,33.4,30.2,30.49,SSE,157,1.0,1.0,88,0.00,,,0.00,Wunderground v.1.15,2013-03-10 13:06:00,
2013-03-10 06:11:00,33.4,30.2,30.49,SSE,157,1.0,2.0,88,0.00,,,0.00,Wunderground v.1.15,2013-03-10 13:11:00,
2013-03-10 06:16:00,33.6,30.4,30.49,SSE,157,0.0,2.0,88,0.00,,,0.00,Wunderground v.1.15,2013-03-10 13:16:00,
2013-03-10 06:21:00,33.6,30.1,30.49,SSE,157,2.0,3.0,87,0.00,,,0.00,Wunderground v.1.15,2013-03-10 13:21:00,
2013-03-10 06:26:00,33.5,30.0,30.49,SSE,157,3.0,5.0,87,0.00,,,0.00,Wunderground v.1.15,2013-03-10 13:26:00,
2013-03-10 06:31:00,33.4,29.9,30.49,SSE,157,0.0,3.0,87,0.00,,,0.00,Wunderground v.1.15,2013-03-10 13:31:00,
2013-03-10 06:36:00,33.2,29.8,30.49,SSE,157,0.0,3.0,87,0.00,,,0.00,Wunderground v.1.15,2013-03-10 13:36:00,
2013-03-10 06:41:00,33.0,29.6,30.49,SSE,157,1.0,2.0,87,0.00,,,0.00,Wunderground v.1.15,2013-03-10 13:41:00,
2013-03-10 06:46:00,32.8,29.6,30.49,SSE,157,0.0,2.0,88,0.00,,,0.00,Wunderground v.1.15,2013-03-10 13:46:00,
2013-03-10 06:51:00,32.5,29.3,30.49,SSE,157,0.0,1.0,88,0.00,,,0.00,Wunderground v.1.15,2013-03-10 13:51:00,
2013-03-10 06:56:00,32.2,29.0,30.49,SSE,157,0.0,1.0,88,0.00,,,0.00,Wunderground v.1.15,2013-03-10 13:56:00,
2013-03-10 07:01:00,32.0,29.1,30.49,SSE,157,0.0,0.0,89,0.00,,,0.00,Wunderground v.1.15,2013-03-10 14:01:00,
2013-03-10 07:06:00,31.9,29.0,30.49,SSE,157,1.0,1.0,89,0.00,,,0.00,Wunderground v.1.15,2013-03-10 14:06:00,
2013-03-10 07:11:00,31.8,28.9,30.49,SSE,157,1.0,2.0,89,0.00,,,0.00,Wunderground v.1.15,2013-03-10 14:11:00,
2013-03-10 07:16:00,31.7,28.8,30.49,SSE,157,1.0,3.0,89,0.00,,,0.00,Wunderground v.1.15,2013-03-10 14:16:00,
2013-03-10 07:21:00,31.7,29.1,30.49,SSE,157,0.0,2.0,90,0.00,,,0.00,Wunderground v.1.15,2013-03-10 14:21:00,
2013-03-10 07:26:00,31.7,28.8,30.49,SSE,157,1.0,3.0,89,0.00,,,0.00,Wunderground v.1.15,2013-03-10 14:26:00,
2013-03-10 07:31:00,31.7,28.8,30.49,SSE,157,2.0,3.0,89,0.00,,,0.00,Wunderground v.1.15,2013-03-10 14:31:00,
2013-03-10 07:36:00,31.7,28.8,30.49,SSE,157,2.0,3.0,89,0.00,,,0.00,Wunderground v.1.15,2013-03-10 14:36:00,
2013-03-10 07:41:00,31.6,28.7,30.49,SSE,157,3.0,3.0,89,0.00,,,0.00,Wunderground v.1.15,2013-03-10 14:41:00,
2013-03-10 07:46:00,31.8,29.2,30.49,SSE,157,2.0,3.0,90,0.00,,,0.00,Wunderground v.1.15,2013-03-10 14:46:00,
2013-03-10 07:51:00,32.1,29.2,30.49,SSE,157,0.0,3.0,89,0.00,,,0.00,Wunderground v.1.15,2013-03-10 14:51:00,
2013-03-10 07:56:00,32.4,29.2,30.48,SSE,157,3.0,3.0,88,0.00,,,0.00,Wunderground v.1.15,2013-03-10 14:56:00,
2013-03-10 08:01:00,32.5,29.3,30.48,SSE,157,3.0,4.0,88,0.00,,,0.00,Wunderground v.1.15,2013-03-10 15:01:00,
2013-03-10 08:06:00,32.9,29.7,30.48,SE,126,1.0,5.0,88,0.00,,,0.00,Wunderground v.1.15,2013-03-10 15:06:00,
2013-03-10 08:12:00,33.2,29.8,30.48,SE,141,5.0,5.0,87,0.00,,,0.00,Wunderground v.1.15,2013-03-10 15:12:00,
2013-03-10 08:17:00,33.5,30.0,30.48,SE,141,1.0,8.0,87,0.00,,,0.00,Wunderground v.1.15,2013-03-10 15:17:00,
2013-03-10 08:22:00,33.9,30.2,30.49,SE,141,3.0,5.0,86,0.00,,,0.00,Wunderground v.1.15,2013-03-10 15:22:00,
2013-03-10 08:27:00,34.1,30.1,30.49,SE,135,0.0,5.0,85,0.00,,,0.00,Wunderground v.1.15,2013-03-10 15:27:00,
2013-03-10 08:32:00,34.4,30.1,30.49,SSE,165,2.0,7.0,84,0.00,,,0.00,Wunderground v.1.15,2013-03-10 15:32:00,
2013-03-10 08:37:00,34.6,30.0,30.49,SE,132,0.0,7.0,83,0.00,,,0.00,Wunderground v.1.15,2013-03-10 15:37:00,
2013-03-10 08:42:00,34.9,30.0,30.49,SE,132,1.0,4.0,82,0.00,,,0.00,Wunderground v.1.15,2013-03-10 15:42:00,
2013-03-10 08:47:00,35.3,30.1,30.49,SE,142,0.0,4.0,81,0.00,,,0.00,Wunderground v.1.15,2013-03-10 15:47:00,
2013-03-10 08:52:00,35.3,29.7,30.48,SSE,161,6.0,8.0,80,0.00,,,0.00,Wunderground v.1.15,2013-03-10 15:52:00,
2013-03-10 08:57:00,35.2,29.6,30.48,SE,144,12.0,12.0,80,0.00,,,0.00,Wunderground v.1.15,2013-03-10 15:57:00,
2013-03-10 09:02:00,35.3,30.1,30.48,SSE,160,3.0,6.0,81,0.00,,,0.00,Wunderground v.1.15,2013-03-10 16:02:00,
2013-03-10 09:07:00,35.5,29.9,30.48,SSE,160,4.0,9.0,80,0.00,,,0.00,Wunderground v.1.15,2013-03-10 16:07:00,
2013-03-10 09:12:00,35.6,30.0,30.48,ESE,115,4.0,8.0,80,0.00,,,0.00,Wunderground v.1.15,2013-03-10 16:12:00,
2013-03-10 09:17:00,35.0,29.8,30.48,ENE,78,2.0,8.0,81,0.00,,,0.00,Wunderground v.1.15,2013-03-10 16:17:00,
2013-03-10 09:22:00,33.7,29.4,30.48,NE,41,1.0,4.0,84,0.00,,,0.00,Wunderground v.1.15,2013-03-10 16:22:00,
2013-03-10 09:28:00,33.8,30.1,30.48,NE,41,0.0,4.0,86,0.00,,,0.00,Wunderground v.1.15,2013-03-10 16:28:00,
2013-03-10 09:33:00,34.7,30.4,30.48,SE,140,4.0,4.0,84,0.00,,,0.00,Wunderground v.1.15,2013-03-10 16:33:00,
2013-03-10 09:39:00,35.9,30.6,30.48,SSE,162,6.0,10.0,81,0.00,,,0.00,Wunderground v.1.15,2013-03-10 16:39:00,
2013-03-10 09:44:00,36.3,30.4,30.47,South,184,7.0,8.0,79,0.00,,,0.00,Wunderground v.1.15,2013-03-10 16:44:00,
2013-03-10 09:49:00,36.4,30.5,30.47,South,183,5.0,10.0,79,0.00,,,0.00,Wunderground v.1.15,2013-03-10 16:49:00,
2013-03-10 09:54:00,36.4,30.5,30.47,South,176,5.0,10.0,79,0.00,,,0.00,Wunderground v.1.15,2013-03-10 16:54:00,
2013-03-10 09:59:00,36.5,30.6,30.46,South,175,6.0,10.0,79,0.00,,,0.00,Wunderground v.1.15,2013-03-10 16:59:00,
2013-03-10 10:04:00,36.5,30.6,30.46,SSW,192,6.0,9.0,79,0.00,,,0.00,Wunderground v.1.15,2013-03-10 17:04:00,
2013-03-10 10:09:00,36.5,30.6,30.46,SSW,192,7.0,9.0,79,0.00,,,0.00,Wunderground v.1.15,2013-03-10 17:09:00,
2013-03-10 10:14:00,36.5,30.6,30.46,SSW,199,5.0,11.0,79,0.00,,,0.00,Wunderground v.1.15,2013-03-10 17:14:00,
2013-03-10 10:19:00,36.5,30.6,30.46,South,169,6.0,13.0,79,0.00,,,0.00,Wunderground v.1.15,2013-03-10 17:19:00,
2013-03-10 10:24:00,36.6,30.7,30.46,SSW,199,7.0,10.0,79,0.00,,,0.00,Wunderground v.1.15,2013-03-10 17:24:00,
2013-03-10 10:29:00,37.0,31.1,30.46,SSW,194,8.0,11.0,79,0.00,,,0.00,Wunderground v.1.15,2013-03-10 17:29:00,
2013-03-10 10:34:00,37.3,30.7,30.45,South,181,12.0,14.0,77,0.00,,,0.00,Wunderground v.1.15,2013-03-10 17:34:00,
2013-03-10 10:39:00,37.5,30.6,30.45,SSW,199,7.0,15.0,76,0.00,,,0.00,Wunderground v.1.15,2013-03-10 17:39:00,
2013-03-10 10:44:00,37.7,30.8,30.45,South,183,12.0,15.0,76,0.00,,,0.00,Wunderground v.1.15,2013-03-10 17:44:00,
2013-03-10 10:49:00,37.9,30.7,30.44,South,188,13.0,15.0,75,0.00,,,0.00,Wunderground v.1.15,2013-03-10 17:49:00,
2013-03-10 10:54:00,38.1,31.2,30.44,South,174,11.0,13.0,76,0.00,,,0.00,Wunderground v.1.15,2013-03-10 17:54:00,
2013-03-10 10:59:00,38.5,31.6,30.44,SSW,197,7.0,13.0,76,0.00,,,0.00,Wunderground v.1.15,2013-03-10 17:59:00,
2013-03-10 11:04:00,38.6,31.0,30.44,South,186,12.0,12.0,74,0.00,,,0.00,Wunderground v.1.15,2013-03-10 18:04:00,
2013-03-10 11:09:00,38.6,31.0,30.44,South,186,6.0,12.0,74,0.00,,,0.00,Wunderground v.1.15,2013-03-10 18:09:00,
2013-03-10 11:14:00,38.9,31.6,30.44,South,189,8.0,10.0,75,0.00,,,0.00,Wunderground v.1.15,2013-03-10 18:14:00,
2013-03-10 11:20:00,39.1,30.8,30.44,SSW,192,4.0,8.0,72,0.00,,,0.00,Wunderground v.1.15,2013-03-10 18:20:00,
2013-03-10 11:25:00,39.3,30.7,30.44,SSW,194,5.0,12.0,71,0.00,,,0.00,Wunderground v.1.15,2013-03-10 18:25:00,
2013-03-10 11:30:00,39.5,30.9,30.44,SSW,205,8.0,10.0,71,0.00,,,0.00,Wunderground v.1.15,2013-03-10 18:30:00,
2013-03-10 11:35:00,39.5,30.9,30.44,SSW,205,6.0,10.0,71,0.00,,,0.00,Wunderground v.1.15,2013-03-10 18:35:00,
2013-03-10 11:40:00,39.8,31.2,30.44,SSW,194,4.0,7.0,71,0.00,,,0.00,Wunderground v.1.15,2013-03-10 18:40:00,
2013-03-10 11:45:00,39.9,30.9,30.44,SSW,203,6.0,7.0,70,0.00,,,0.00,Wunderground v.1.15,2013-03-10 18:45:00,
2013-03-10 11:50:00,40.0,31.0,30.44,SSW,206,6.0,7.0,70,0.00,,,0.00,Wunderground v.1.15,2013-03-10 18:50:00,
2013-03-10 11:55:00,40.2,31.2,30.44,SW,223,3.0,9.0,70,0.00,,,0.00,Wunderground v.1.15,2013-03-10 18:55:00,
2013-03-10 12:00:00,40.4,30.7,30.44,SW,219,6.0,6.0,68,0.00,,,0.00,Wunderground v.1.15,2013-03-10 19:00:00,
2013-03-10 12:05:00,40.4,30.3,30.44,SW,214,6.0,7.0,67,0.00,,,0.00,Wunderground v.1.15,2013-03-10 19:05:00,
2013-03-10 12:10:00,40.5,30.4,30.44,SW,228,4.0,6.0,67,0.00,,,0.00,Wunderground v.1.15,2013-03-10 19:10:00,
2013-03-10 12:15:00,40.9,30.8,30.44,SW,236,3.0,7.0,67,0.00,,,0.00,Wunderground v.1.15,2013-03-10 19:15:00,
2013-03-10 12:20:00,40.7,31.3,30.44,WSW,257,4.0,6.0,69,0.00,,,0.00,Wunderground v.1.15,2013-03-10 19:20:00,
2013-03-10 12:25:00,40.7,31.7,30.44,WSW,257,0.0,6.0,70,0.00,,,0.00,Wunderground v.1.15,2013-03-10 19:25:00,
2013-03-10 12:30:00,41.0,31.6,30.43,WSW,257,4.0,4.0,69,0.00,,,0.00,Wunderground v.1.15,2013-03-10 19:30:00,
2013-03-10 12:35:00,41.1,31.7,30.43,SSW,212,0.0,5.0,69,0.00,,,0.00,Wunderground v.1.15,2013-03-10 19:35:00,
2013-03-10 12:40:00,40.9,31.5,30.43,SSW,212,2.0,2.0,69,0.00,,,0.00,Wunderground v.1.15,2013-03-10 19:40:00,
2013-03-10 12:45:00,41.0,31.6,30.43,SW,232,3.0,5.0,69,0.00,,,0.00,Wunderground v.1.15,2013-03-10 19:45:00,
2013-03-10 12:50:00,41.0,31.6,30.43,SW,234,0.0,2.0,69,0.00,,,0.00,Wunderground v.1.15,2013-03-10 19:50:00,
2013-03-10 12:55:00,41.0,31.6,30.43,WSW,250,3.0,6.0,69,0.00,,,0.00,Wunderground v.1.15,2013-03-10 19:55:00,
2013-03-10 13:00:00,41.0,31.6,30.43,SSW,210,8.0,8.0,69,0.00,,,0.00,Wunderground v.1.15,2013-03-10 20:00:00,
2013-03-10 13:05:00,41.1,32.1,30.43,SSW,198,6.0,8.0,70,0.00,,,0.00,Wunderground v.1.15,2013-03-10 20:05:00,
2013-03-10 13:10:00,41.3,31.5,30.42,South,177,5.0,8.0,68,0.00,,,0.00,Wunderground v.1.15,2013-03-10 20:10:00,
2013-03-10 13:16:00,41.3,31.2,30.42,SSW,192,7.0,10.0,67,0.00,,,0.00,Wunderground v.1.15,2013-03-10 20:16:00,
2013-03-10 13:21:00,41.4,31.6,30.42,South,188,7.0,8.0,68,0.00,,,0.00,Wunderground v.1.15,2013-03-10 20:21:00,
2013-03-10 13:26:00,41.4,31.3,30.41,SSW,196,7.0,12.0,67,0.00,,,0.00,Wunderground v.1.15,2013-03-10 20:26:00,
2013-03-10 13:31:00,41.5,31.4,30.41,South,186,8.0,13.0,67,0.00,,,0.00,Wunderground v.1.15,2013-03-10 20:31:00,
2013-03-10 13:36:00,41.8,31.6,30.40,SSE,168,9.0,13.0,67,0.00,,,0.00,Wunderground v.1.15,2013-03-10 20:36:00,
2013-03-10 13:41:00,41.9,31.7,30.40,South,175,10.0,15.0,67,0.00,,,0.00,Wunderground v.1.15,2013-03-10 20:41:00,
2013-03-10 13:46:00,42.2,32.0,30.39,South,175,10.0,18.0,67,0.00,,,0.00,Wunderground v.1.15,2013-03-10 20:46:00,
2013-03-10 13:51:00,42.4,32.2,30.39,South,189,11.0,14.0,67,0.00,,,0.00,Wunderground v.1.15,2013-03-10 20:51:00,
2013-03-10 13:56:00,42.5,31.9,30.39,South,187,13.0,16.0,66,0.00,,,0.00,Wunderground v.1.15,2013-03-10 20:56:00,
2013-03-10 14:02:00,42.3,31.4,30.38,South,190,12.0,15.0,65,0.00,,,0.00,Wunderground v.1.15,2013-03-10 21:02:00,
2013-03-10 14:07:00,42.5,31.6,30.38,SSW,202,12.0,20.0,65,0.00,,,0.00,Wunderground v.1.15,2013-03-10 21:07:00,
2013-03-10 14:12:00,42.6,31.7,30.38,South,181,15.0,18.0,65,0.00,,,0.00,Wunderground v.1.15,2013-03-10 21:12:00,
2013-03-10 14:17:00,42.7,31.7,30.38,SSW,200,10.0,18.0,65,0.00,,,0.00,Wunderground v.1.15,2013-03-10 21:17:00,
2013-03-10 14:22:00,42.7,31.7,30.38,SSW,201,9.0,13.0,65,0.00,,,0.00,Wunderground v.1.15,2013-03-10 21:22:00,
2013-03-10 14:27:00,42.7,31.4,30.38,South,182,11.0,18.0,64,0.00,,,0.00,Wunderground v.1.15,2013-03-10 21:27:00,
2013-03-10 14:32:00,42.9,31.9,30.38,SSW,202,12.0,14.0,65,0.00,,,0.00,Wunderground v.1.15,2013-03-10 21:32:00,
2013-03-10 14:37:00,42.5,31.6,30.38,SSW,199,13.0,15.0,65,0.00,,,0.00,Wunderground v.1.15,2013-03-10 21:37:00,
2013-03-10 14:42:00,42.3,32.1,30.37,South,188,10.0,19.0,67,0.00,,,0.00,Wunderground v.1.15,2013-03-10 21:42:00,
2013-03-10 14:47:00,42.2,32.4,30.37,South,170,12.0,20.0,68,0.00,,,0.00,Wunderground v.1.15,2013-03-10 21:47:00,
2013-03-10 14:52:00,42.4,32.6,30.37,SSW,197,13.0,17.0,68,0.00,,,0.00,Wunderground v.1.15,2013-03-10 21:52:00,
2013-03-10 14:57:00,42.6,32.8,30.37,South,191,15.0,17.0,68,0.00,,,0.00,Wunderground v.1.15,2013-03-10 21:57:00,
2013-03-10 15:02:00,42.9,33.1,30.38,SSW,212,12.0,14.0,68,0.00,,,0.00,Wunderground v.1.15,2013-03-10 22:02:00,
2013-03-10 15:07:00,42.6,33.1,30.38,SW,214,15.0,16.0,69,0.00,,,0.00,Wunderground v.1.15,2013-03-10 22:07:00,
2013-03-10 15:13:00,42.0,34.3,30.39,SW,221,10.0,13.0,74,0.00,,,0.00,Wunderground v.1.15,2013-03-10 22:13:00,
2013-03-10 15:19:00,41.3,34.3,30.39,SW,218,8.0,18.0,76,0.00,,,0.00,Wunderground v.1.15,2013-03-10 22:19:00,
2013-03-10 15:24:00,40.7,34.7,30.39,SSW,204,8.0,16.0,79,0.00,,,0.00,Wunderground v.1.15,2013-03-10 22:24:00,
2013-03-10 15:29:00,40.2,34.2,30.39,South,179,10.0,16.0,79,0.00,,,0.00,Wunderground v.1.15,2013-03-10 22:29:00,
2013-03-10 15:34:00,40.2,34.5,30.39,SSW,196,14.0,14.0,80,0.00,,,0.00,Wunderground v.1.15,2013-03-10 22:34:00,
2013-03-10 15:39:00,40.0,34.6,30.39,South,173,11.0,14.0,81,0.00,,,0.00,Wunderground v.1.15,2013-03-10 22:39:00,
2013-03-10 15:44:00,39.8,34.4,30.39,SSW,202,10.0,15.0,81,0.00,,,0.00,Wunderground v.1.15,2013-03-10 22:44:00,
2013-03-10 15:49:00,39.6,34.2,30.39,South,177,10.0,15.0,81,0.00,,,0.00,Wunderground v.1.15,2013-03-10 22:49:00,
2013-03-10 15:54:00,39.5,34.2,30.39,SSW,198,7.0,12.0,81,0.00,,,0.00,Wunderground v.1.15,2013-03-10 22:54:00,
2013-03-10 15:59:00,39.5,34.5,30.39,SSW,194,10.0,12.0,82,0.00,,,0.00,Wunderground v.1.15,2013-03-10 22:59:00,
2013-03-10 16:04:00,39.5,34.5,30.39,SSW,204,11.0,13.0,82,0.00,,,0.00,Wunderground v.1.15,2013-03-10 23:04:00,
2013-03-10 16:09:00,39.4,34.7,30.39,South,191,9.0,13.0,83,0.00,,,0.00,Wunderground v.1.15,2013-03-10 23:09:00,
2013-03-10 16:14:00,39.3,34.6,30.39,South,173,7.0,13.0,83,0.00,,,0.00,Wunderground v.1.15,2013-03-10 23:14:00,
2013-03-10 16:19:00,39.4,35.0,30.39,SSE,156,8.0,13.0,84,0.00,,,0.00,Wunderground v.1.15,2013-03-10 23:19:00,
2013-03-10 16:24:00,39.4,35.0,30.39,SSE,157,9.0,11.0,84,0.00,,,0.00,Wunderground v.1.15,2013-03-10 23:24:00,
2013-03-10 16:29:00,39.3,35.2,30.38,South,185,10.0,14.0,85,0.00,,,0.00,Wunderground v.1.15,2013-03-10 23:29:00,
2013-03-10 16:34:00,39.5,35.4,30.38,SSE,157,10.0,12.0,85,0.00,,,0.00,Wunderground v.1.15,2013-03-10 23:34:00,
2013-03-10 16:39:00,39.6,35.5,30.38,SSE,160,11.0,13.0,85,0.00,,,0.00,Wunderground v.1.15,2013-03-10 23:39:00,
2013-03-10 16:44:00,39.8,35.7,30.37,SSE,161,11.0,12.0,85,0.00,,,0.00,Wunderground v.1.15,2013-03-10 23:44:00,
2013-03-10 16:49:00,39.7,35.6,30.37,SSE,157,10.0,12.0,85,0.00,,,0.00,Wunderground v.1.15,2013-03-10 23:49:00,
2013-03-10 16:54:00,39.6,35.5,30.37,South,175,10.0,15.0,85,0.00,,,0.00,Wunderground v.1.15,2013-03-10 23:54:00,
2013-03-10 16:59:00,39.7,35.9,30.36,SSE,159,8.0,15.0,86,0.00,,,0.00,Wunderground v.1.15,2013-03-10 23:59:00,
2013-03-10 17:04:00,39.8,35.7,30.36,South,180,9.0,12.0,85,0.00,,,0.00,Wunderground v.1.15,2013-03-11 00:04:00,
2013-03-10 17:09:00,39.9,36.1,30.36,South,186,6.0,14.0,86,0.00,,,0.00,Wunderground v.1.15,2013-03-11 00:09:00,
2013-03-10 17:14:00,40.1,36.2,30.36,South,183,13.0,16.0,86,0.00,,,0.00,Wunderground v.1.15,2013-03-11 00:14:00,
2013-03-10 17:19:00,40.1,36.0,30.36,South,182,7.0,17.0,85,0.00,,,0.00,Wunderground v.1.15,2013-03-11 00:19:00,
2013-03-10 17:24:00,40.2,35.8,30.36,SSW,208,11.0,16.0,84,0.00,,,0.00,Wunderground v.1.15,2013-03-11 00:24:00,
2013-03-10 17:29:00,40.1,35.7,30.36,South,185,16.0,18.0,84,0.00,,,0.00,Wunderground v.1.15,2013-03-11 00:29:00,
2013-03-10 17:34:00,40.1,35.7,30.36,SSW,206,8.0,15.0,84,0.00,,,0.00,Wunderground v.1.15,2013-03-11 00:34:00,
2013-03-10 17:39:00,40.3,35.8,30.36,SSW,192,13.0,15.0,84,0.00,,,0.00,Wunderground v.1.15,2013-03-11 00:39:00,
2013-03-10 17:44:00,40.3,35.5,30.35,SW,214,13.0,15.0,83,0.00,,,0.00,Wunderground v.1.15,2013-03-11 00:44:00,
2013-03-10 17:49:00,40.1,35.7,30.35,SSW,210,12.0,12.0,84,0.00,,,0.00,Wunderground v.1.15,2013-03-11 00:49:00,
2013-03-10 17:54:00,40.0,35.9,30.35,SSW,207,8.0,13.0,85,0.00,,,0.00,Wunderground v.1.15,2013-03-11 00:54:00,
2013-03-10 18:00:00,40.0,35.9,30.36,SSW,196,8.0,9.0,85,0.00,,,0.00,Wunderground v.1.15,2013-03-11 01:00:00,
2013-03-10 18:05:00,40.0,35.9,30.35,South,191,10.0,13.0,85,0.00,,,0.00,Wunderground v.1.15,2013-03-11 01:05:00,
2013-03-10 18:10:00,39.9,35.8,30.35,South,180,8.0,9.0,85,0.00,,,0.00,Wunderground v.1.15,2013-03-11 01:10:00,
2013-03-10 18:15:00,40.0,36.2,30.35,South,178,8.0,9.0,86,0.00,,,0.00,Wunderground v.1.15,2013-03-11 01:15:00,
2013-03-10 18:20:00,39.7,36.1,30.35,South,183,8.0,11.0,87,0.00,,,0.00,Wunderground v.1.15,2013-03-11 01:20:00,
2013-03-10 18:25:00,39.4,36.1,30.35,South,176,8.0,11.0,88,0.00,,,0.00,Wunderground v.1.15,2013-03-11 01:25:00,
2013-03-10 18:30:00,39.1,35.8,30.35,South,186,8.0,8.0,88,0.00,,,0.00,Wunderground v.1.15,2013-03-11 01:30:00,
2013-03-10 18:35:00,38.9,35.9,30.35,SSW,192,9.0,12.0,89,0.00,,,0.00,Wunderground v.1.15,2013-03-11 01:35:00,
2013-03-10 18:40:00,38.7,35.7,30.35,South,179,9.0,9.0,89,0.00,,,0.00,Wunderground v.1.15,2013-03-11 01:40:00,
2013-03-10 18:45:00,38.4,35.4,30.35,SSW,192,6.0,10.0,89,0.00,,,0.00,Wunderground v.1.15,2013-03-11 01:45:00,
2013-03-10 18:50:00,38.3,35.3,30.35,South,181,7.0,9.0,89,0.00,,,0.00,Wunderground v.1.15,2013-03-11 01:50:00,
2013-03-10 18:55:00,38.2,35.2,30.35,South,178,5.0,9.0,89,0.00,,,0.00,Wunderground v.1.15,2013-03-11 01:55:00,
2013-03-10 19:00:00,37.9,35.2,30.35,South,188,7.0,8.0,90,0.00,,,0.00,Wunderground v.1.15,2013-03-11 02:00:00,
2013-03-10 19:05:00,37.8,35.1,30.35,SSW,196,7.0,9.0,90,0.00,,,0.00,Wunderground v.1.15,2013-03-11 02:05:00,
2013-03-10 19:10:00,37.7,35.0,30.36,SSW,193,7.0,7.0,90,0.00,,,0.00,Wunderground v.1.15,2013-03-11 02:10:00,
2013-03-10 19:15:00,37.6,34.9,30.36,South,190,6.0,9.0,90,0.00,,,0.00,Wunderground v.1.15,2013-03-11 02:15:00,
2013-03-10 19:20:00,37.6,35.2,30.36,South,180,9.0,9.0,91,0.00,,,0.00,Wunderground v.1.15,2013-03-11 02:20:00,
2013-03-10 19:25:00,37.6,35.2,30.37,SSW,194,5.0,9.0,91,0.00,,,0.00,Wunderground v.1.15,2013-03-11 02:25:00,
2013-03-10 19:30:00,37.5,35.1,30.37,South,169,7.0,7.0,91,0.00,,,0.00,Wunderground v.1.15,2013-03-11 02:30:00,
2013-03-10 19:35:00,37.5,35.1,30.37,SSE,165,3.0,7.0,91,0.00,,,0.00,Wunderground v.1.15,2013-03-11 02:35:00,
2013-03-10 19:40:00,37.5,35.1,30.37,SSE,157,7.0,7.0,91,0.00,,,0.00,Wunderground v.1.15,2013-03-11 02:40:00,
2013-03-10 19:45:00,37.4,35.0,30.37,SSE,165,6.0,7.0,91,0.00,,,0.00,Wunderground v.1.15,2013-03-11 02:45:00,
2013-03-10 19:50:00,37.1,34.7,30.37,SSE,156,8.0,8.0,91,0.00,,,0.00,Wunderground v.1.15,2013-03-11 02:50:00,
2013-03-10 19:55:00,36.9,34.5,30.37,SSE,156,7.0,8.0,91,0.00,,,0.00,Wunderground v.1.15,2013-03-11 02:55:00,
2013-03-10 20:01:00,36.8,34.4,30.37,SSE,156,7.0,7.0,91,0.00,,,0.00,Wunderground v.1.15,2013-03-11 03:01:00,
2013-03-10 20:06:00,36.6,34.5,30.37,SSE,156,6.0,8.0,92,0.00,,,0.00,Wunderground v.1.15,2013-03-11 03:06:00,
2013-03-10 20:11:00,36.5,34.4,30.37,SSE,159,5.0,7.0,92,0.00,,,0.00,Wunderground v.1.15,2013-03-11 03:11:00,
2013-03-10 20:16:00,36.6,34.5,30.37,SSE,166,6.0,10.0,92,0.00,,,0.00,Wunderground v.1.15,2013-03-11 03:16:00,
2013-03-10 20:21:00,36.6,34.5,30.37,South,175,6.0,7.0,92,0.00,,,0.00,Wunderground v.1.15,2013-03-11 03:21:00,
2013-03-10 20:26:00,36.6,34.8,30.37,SSE,167,7.0,8.0,93,0.00,,,0.00,Wunderground v.1.15,2013-03-11 03:26:00,
2013-03-10 20:31:00,36.6,34.8,30.37,SSE,160,8.0,8.0,93,0.00,,,0.00,Wunderground v.1.15,2013-03-11 03:31:00,
2013-03-10 20:37:00,36.7,34.6,30.37,SSE,161,7.0,9.0,92,0.00,,,0.00,Wunderground v.1.15,2013-03-11 03:37:00,
2013-03-10 20:42:00,36.5,34.7,30.37,SSE,168,5.0,8.0,93,0.00,,,0.00,Wunderground v.1.15,2013-03-11 03:42:00,
2013-03-10 20:47:00,36.5,34.7,30.37,SSE,163,7.0,10.0,93,0.00,,,0.00,Wunderground v.1.15,2013-03-11 03:47:00,
2013-03-10 20:52:00,36.5,34.7,30.36,SSE,153,5.0,10.0,93,0.00,,,0.00,Wunderground v.1.15,2013-03-11 03:52:00,
2013-03-10 20:57:00,36.3,34.5,30.37,SSE,166,6.0,10.0,93,0.00,,,0.00,Wunderground v.1.15,2013-03-11 03:57:00,
2013-03-10 21:00:00,36.3,34.5,30.37,SSE,160,7.0,7.0,93,0.00,,,0.00,Wunderground v.1.15,2013-03-11 04:00:00,
2013-03-10 21:05:00,36.4,34.6,30.37,South,169,6.0,8.0,93,0.00,,,0.00,Wunderground v.1.15,2013-03-11 04:05:00,
2013-03-10 21:10:00,36.4,34.6,30.37,South,178,7.0,9.0,93,0.00,,,0.00,Wunderground v.1.15,2013-03-11 04:10:00,
2013-03-10 21:15:00,36.4,34.3,30.37,South,188,9.0,11.0,92,0.00,,,0.00,Wunderground v.1.15,2013-03-11 04:15:00,
2013-03-10 21:20:00,36.5,34.4,30.37,SSE,155,9.0,9.0,92,0.00,,,0.00,Wunderground v.1.15,2013-03-11 04:20:00,
2013-03-10 21:25:00,36.7,34.6,30.36,South,186,9.0,11.0,92,0.00,,,0.00,Wunderground v.1.15,2013-03-11 04:25:00,
2013-03-10 21:30:00,36.7,34.6,30.36,South,187,9.0,12.0,92,0.00,,,0.00,Wunderground v.1.15,2013-03-11 04:30:00,
2013-03-10 21:35:00,36.8,34.4,30.36,South,176,13.0,15.0,91,0.00,,,0.00,Wunderground v.1.15,2013-03-11 04:35:00,
2013-03-10 21:40:00,36.7,34.3,30.36,South,175,14.0,16.0,91,0.00,,,0.00,Wunderground v.1.15,2013-03-11 04:40:00,
2013-03-10 21:46:00,36.8,34.7,30.36,South,178,13.0,16.0,92,0.00,,,0.00,Wunderground v.1.15,2013-03-11 04:46:00,
2013-03-10 21:51:00,36.8,34.7,30.36,South,169,9.0,14.0,92,0.00,,,0.00,Wunderground v.1.15,2013-03-11 04:51:00,
2013-03-10 21:56:00,36.8,34.7,30.36,South,175,10.0,14.0,92,0.00,,,0.00,Wunderground v.1.15,2013-03-11 04:56:00,
2013-03-10 22:01:00,36.7,34.6,30.36,South,186,7.0,9.0,92,0.00,,,0.00,Wunderground v.1.15,2013-03-11 05:01:00,
2013-03-10 22:06:00,36.4,34.3,30.36,SSE,166,9.0,12.0,92,0.00,,,0.00,Wunderground v.1.15,2013-03-11 05:06:00,
2013-03-10 22:11:00,36.4,34.3,30.36,SSW,192,7.0,13.0,92,0.00,,,0.00,Wunderground v.1.15,2013-03-11 05:11:00,
2013-03-10 22:16:00,36.4,34.3,30.36,South,182,7.0,13.0,92,0.00,,,0.00,Wunderground v.1.15,2013-03-11 05:16:00,
2013-03-10 22:22:00,36.4,34.3,30.36,South,178,8.0,8.0,92,0.00,,,0.00,Wunderground v.1.15,2013-03-11 05:22:00,
2013-03-10 22:27:00,36.4,34.3,30.36,South,188,6.0,10.0,92,0.00,,,0.00,Wunderground v.1.15,2013-03-11 05:27:00,
2013-03-10 22:32:00,36.3,34.2,30.36,SSE,163,3.0,7.0,92,0.00,,,0.00,Wunderground v.1.15,2013-03-11 05:32:00,
2013-03-10 22:37:00,36.4,34.3,30.37,SSE,163,1.0,7.0,92,0.00,,,0.00,Wunderground v.1.15,2013-03-11 05:37:00,
2013-03-10 22:42:00,36.3,34.2,30.37,SSE,159,3.0,6.0,92,0.00,,,0.00,Wunderground v.1.15,2013-03-11 05:42:00,
2013-03-10 22:47:00,36.4,34.3,30.36,South,183,7.0,11.0,92,0.00,,,0.00,Wunderground v.1.15,2013-03-11 05:47:00,
2013-03-10 22:52:00,36.3,34.2,30.36,South,177,10.0,12.0,92,0.00,,,0.00,Wunderground v.1.15,2013-03-11 05:52:00,
2013-03-10 22:57:00,36.3,34.2,30.36,South,187,12.0,12.0,92,0.00,,,0.00,Wunderground v.1.15,2013-03-11 05:57:00,
2013-03-10 23:02:00,36.1,34.0,30.36,SSE,163,10.0,14.0,92,0.00,,,0.00,Wunderground v.1.15,2013-03-11 06:02:00,
2013-03-10 23:08:00,35.9,33.8,30.36,South,172,12.0,14.0,92,0.00,,,0.00,Wunderground v.1.15,2013-03-11 06:08:00,
2013-03-10 23:14:00,35.5,33.7,30.35,South,184,9.0,13.0,93,0.00,,,0.00,Wunderground v.1.15,2013-03-11 06:14:00,
2013-03-10 23:19:00,35.3,33.5,30.35,South,188,9.0,14.0,93,0.00,,,0.00,Wunderground v.1.15,2013-03-11 06:19:00,
2013-03-10 23:24:00,35.1,33.5,30.35,South,182,8.0,14.0,94,0.00,,,0.00,Wunderground v.1.15,2013-03-11 06:24:00,
2013-03-10 23:29:00,35.1,33.5,30.35,South,182,7.0,14.0,94,0.00,,,0.00,Wunderground v.1.15,2013-03-11 06:29:00,
2013-03-10 23:34:00,35.2,33.6,30.35,SSE,159,6.0,11.0,94,0.00,,,0.00,Wunderground v.1.15,2013-03-11 06:34:00,
2013-03-10 23:39:00,35.1,33.5,30.34,South,172,7.0,11.0,94,0.00,,,0.00,Wunderground v.1.15,2013-03-11 06:39:00,
2013-03-10 23:44:00,35.0,33.4,30.34,South,188,6.0,12.0,94,0.00,,,0.00,Wunderground v.1.15,2013-03-11 06:44:00,
2013-03-10 23:49:00,35.0,33.4,30.34,South,189,10.0,13.0,94,0.00,,,0.00,Wunderground v.1.15,2013-03-11 06:49:00,
2013-03-10 23:54:00,35.0,33.4,30.34,South,175,7.0,14.0,94,0.00,,,0.00,Wunderground v.1.15,2013-03-11 06:54:00,
2013-03-10 23:59:00,34.9,33.3,30.34,South,173,10.0,14.0,94,0.00,,,0.00,Wunderground v.1.15,2013-03-11 06:59:00,